www.pogodaiklimat.ru

Погода и климат >> Архив погоды >> Норвегия >> Вейхолмен


ПОГОДА в Вейхолмене

  • Прогноз погоды в Вейхолмене
  • Монитор погоды в Вейхолмене

АРХИВ ПОГОДЫ в Вейхолмене

Время (UTC), дата Ветер
(напр.,м/с)
 
Видим.   Явления Облачность Т
(С)
Тd
(С)
f
(%)
Тe
(С)
Тes
(С)
Комфортность P
(гПа)
Po
(гПа)
Тmin
(С)
Tmax
(С)
R
(мм)
R24
(мм)
S
(см)
22 12.09 З 14
{18}
н/о н/о +12.6 +7.5 71 +9 +9 1007.8 1007.3
23 12.09 З 13
{17}
н/о н/о +12.8 +8.5 75 +9 +9 1008.0 1007.5
00 13.09 З 16
{19}
н/о н/о +11.4 +7.9 79 +7 +7 1008.7 1008.2
01 13.09 З 15
{24}
н/о н/о +11.8 +8.5 80 +7 +7 1008.5 1008.0
02 13.09 З 17
{21}
н/о н/о +12.2 +7.1 71 +8 +8 1008.7 1008.2
03 13.09 З 18
{22}
н/о н/о +12.1 +7.2 72 +7 +7 1009.0 1008.5
04 13.09 З 18
{23}
н/о н/о +12.0 +6.9 71 +7 +7 1009.5 1009.0
05 13.09 З 17
{22}
н/о н/о +11.8 +7.1 73 +7 +7 1010.1 1009.6
06 13.09 З 15
{24}
н/о н/о +11.8 +6.7 71 +7 +7 1011.3 1010.8 +10.6 +13.1
07 13.09 З 15
{18}
н/о н/о +11.6 +7.5 76 +7 +7 1011.7 1011.2
08 13.09 З 14
{18}
н/о н/о +11.5 +7.4 76 +7 +7 1012.5 1012.0
09 13.09 З 12
{21}
н/о н/о +11.6 +7.3 75 +7 +7 1013.0 1012.5
10 13.09 З 14 н/о н/о +11.9 +8.0 77 +8 +8 1013.6 1013.1
11 13.09 З 11 н/о н/о +11.6 +6.9 73 +8 +8 1014.2 1013.7
12 13.09 З 13
{21}
н/о н/о +11.9 +6.8 71 +8 +8 1014.9 1014.4
13 13.09 ЮЗ 14 н/о н/о +10.7 +6.8 77 +6 +6 1015.1 1014.6
14 13.09 З 13 н/о н/о +12.0 +6.9 71 +8 +8 1015.1 1014.6
15 13.09 н/о н/о
16 13.09 З 11 н/о н/о +11.2 +7.1 76 +7 +7 1014.8 1014.3
17 13.09 З 16 н/о н/о +12.1 +7.0 71 +8 +8 1015.0 1014.5
18 13.09 З 13
{22}
н/о н/о +11.6 +7.3 75 +7 +7 1015.3 1014.8 +12.3
19 13.09 З 15 н/о н/о +11.7 +6.4 70 +7 +7 1015.5 1015.0
20 13.09 З 14 н/о н/о +10.8 +7.5 80 +6 +6 1016.1 1015.6
21 13.09 З 17 н/о н/о +11.0 +7.1 77 +6 +6 1016.2 1015.7
22 13.09 З 17 н/о н/о +11.6 +6.1 69 +7 +7 1016.6 1016.1
23 13.09 З 18 н/о н/о +10.9 +6.5 74 +6 +6 1017.2 1016.7
00 14.09 З 16
{27}
н/о н/о +11.9 +6.8 71 +7 +7 1017.0 1016.5
01 14.09 З 15
{19}
н/о н/о +11.4 +7.1 75 +7 +7 1016.8 1016.3
02 14.09 З 17
{21}
н/о н/о +12.0 +7.5 74 +7 +7 1017.0 1016.5
03 14.09 З 13 н/о н/о +10.8 +6.6 75 +6 +6 1017.0 1016.5
04 14.09 З 16
{22}
н/о н/о +11.9 +6.2 68 +7 +7 1017.1 1016.6
05 14.09 З 13
{21}
н/о н/о +11.2 +7.5 78 +7 +7 1017.0 1016.5
06 14.09 З 16
{24}
н/о н/о +12.1 +6.6 69 +8 +8 1017.0 1016.5 +9.5 +12.2
07 14.09 З 13 н/о н/о +11.2 +7.5 78 +7 +7 1016.9 1016.4
08 14.09 З 15
{23}
н/о н/о +12.0 +7.1 72 +8 +8 1017.2 1016.7
09 14.09 З 10
{17}
н/о н/о +12.0 +8.3 78 +8 +8 1016.2 1015.7
10 14.09 З 13
{17}
н/о н/о +12.4 +7.7 73 +8 +8 1015.8 1015.3
11 14.09 ЮЗ 12
{17}
н/о н/о +12.5 +7.6 72 +9 +9 1014.6 1014.1
12 14.09 ЮЗ 12
{23}
н/о н/о +11.9 +7.6 75 +8 +8 1013.7 1013.2
13 14.09 ЮЗ 12
{19}
н/о н/о +11.0 +8.8 86 +7 +7 1012.4 1011.9
14 14.09 ЮЗ 13
{16}
н/о н/о +11.4 +7.3 76 +7 +7 1010.6 1010.1
15 14.09 ЮВ 6
{13}
н/о н/о +10.3 +7.6 83 +7 +7 1008.2 1007.7
16 14.09 ЮВ 7
{10}
н/о н/о +10.0 +7.4 84 +6 +6 1004.9 1004.4
17 14.09 ЮВ 8
{11}
н/о н/о +10.1 +7.7 85 +6 +6 1002.3 1001.8
18 14.09 ЮВ 8
{19}
н/о н/о +9.6 +7.6 87 +5 +5 999.9 999.4 +9.6 +12.6
19 14.09 ЮВ 10
{13}
н/о н/о +9.9 +7.8 87 +5 +5 996.7 996.2
20 14.09 Ю 15
{20}
н/о н/о +10.8 +8.7 87 +6 +6 994.8 994.3
21 14.09 Ю 15
{21}
н/о н/о +11.9 +9.6 86 +7 +7 993.9 993.4
22 14.09 ЮЗ 18
{26}
н/о н/о +13.0 +7.9 71 +9 +9 993.7 993.3
23 14.09 ЮЗ 20
{26}
н/о н/о +13.0 +8.3 73 +9 +9 992.4 992.0
00 15.09 ЮЗ 18
{28}
н/о н/о +11.9 +8.4 79 +7 +7 991.7 991.2
01 15.09 ЮЗ 22
{33}
н/о н/о +10.4 +7.3 81 +4 +4 991.3 990.8
02 15.09 ЮЗ 18
{24}
н/о н/о +11.5 +8.4 81 +6 +6 989.8 989.3
03 15.09 ЮЗ 16
{31}
н/о н/о +11.1 +8.5 84 +6 +6 988.1 987.7
04 15.09 ЮЗ 22
{29}
н/о н/о +10.9 +8.1 83 +5 +5 987.1 986.7
05 15.09 ЮЗ 20
{30}
н/о н/о +11.1 +8.2 82 +6 +6 986.0 985.6
06 15.09 ЮЗ 21
{33}
н/о н/о +11.1 +8.5 84 +5 +5 985.4 985.0 +9.4 +13.4
07 15.09 ЮЗ 18
{25}
н/о н/о +10.6 +8.9 89 +5 +5 985.0 984.6
08 15.09 ЮЗ 17
{23}
н/о н/о +11.7 +8.4 80 +7 +7 984.8 984.4
09 15.09 Ю 16
{27}
н/о н/о +9.4 +7.7 89 +4 +4 984.0 983.5
10 15.09 Ю 14
{20}
н/о н/о +9.9 +8.7 92 +5 +5 984.1 983.7
11 15.09 ЮЗ 16
{20}
н/о н/о +12.2 +9.4 83 +8 +8 985.0 984.6
12 15.09 ЮЗ 15
{27}
н/о н/о +12.1 +9.5 84 +8 +8 985.1 984.7
13 15.09 З 16
{20}
н/о н/о +12.1 +9.8 86 +8 +8 985.9 985.5
14 15.09 З 18
{22}
н/о н/о +12.0 +9.7 86 +7 +7 987.2 986.8
15 15.09 З 16
{23}
н/о н/о +11.9 +10.3 90 +7 +7 988.2 987.8
16 15.09 З 14
{20}
н/о н/о +11.7 +10.0 89 +7 +7 989.6 989.2
17 15.09 З 18
{23}
н/о н/о +12.0 +9.7 86 +7 +7 991.6 991.2
18 15.09 З 16
{23}
н/о н/о +12.1 +8.8 80 +8 +8 993.1 992.6 +9.2 +12.5
19 15.09 З 14
{19}
н/о н/о +11.7 +9.8 88 +7 +7 993.7 993.2
20 15.09 З 15
{20}
н/о н/о +11.8 +9.7 87 +7 +7 994.4 993.9
21 15.09 СЗ 15
{18}
н/о н/о +11.9 +8.9 82 +7 +7 995.6 995.1
22 15.09 З 17
{21}
н/о н/о +11.7 +10.0 89 +7 +7 996.7 996.2
23 15.09 З 17
{21}
н/о н/о +11.6 +10.2 91 +7 +7 997.6 997.1
00 16.09 З 19
{22}
н/о н/о +10.8 +9.2 90 +5 +5 998.6 998.1
01 16.09 З 19
{24}
н/о н/о +10.7 +9.5 92 +5 +5 999.1 998.6
02 16.09 З 18
{25}
н/о н/о +10.8 +9.2 90 +5 +5 999.8 999.3
03 16.09 З 19
{23}
н/о н/о +11.2 +8.4 83 +6 +6 1000.5 1000.0
04 16.09 З 18
{22}
н/о н/о +11.2 +7.9 80 +6 +6 1001.6 1001.1
05 16.09 З 16
{22}
н/о н/о +11.3 +7.8 79 +6 +6 1001.7 1001.2
06 16.09 З 17
{25}
н/о н/о +10.1 +7.0 81 +5 +5 1002.7 1002.2 +10.1 +12.4
07 16.09 З 17
{22}
н/о н/о +10.0 +7.1 82 +4 +4 1003.2 1002.7
08 16.09 З 17
{21}
н/о н/о +10.7 +5.7 71 +6 +6 1003.7 1003.2
09 16.09 З 16
{21}
н/о н/о +10.6 +6.9 78 +5 +5 1004.0 1003.5
10 16.09 З 14
{20}
н/о н/о +10.8 +6.4 74 +6 +6 1004.4 1003.9
11 16.09 З 14
{19}
н/о н/о +10.8 +4.7 66 +6 +6 1004.6 1004.1
12 16.09 З 12
{22}
н/о н/о +10.9 +5.0 67 +7 +7 1004.4 1003.9
13 16.09 З 12
{15}
н/о н/о +10.8 +5.6 70 +6 +6 1003.8 1003.3
14 16.09 З 10
{14}
н/о н/о +10.9 +5.7 70 +7 +7 1003.4 1002.9
15 16.09 З 10
{12}
н/о н/о +10.7 +6.5 75 +7 +7 1003.1 1002.6
16 16.09 З 9
{12}
н/о н/о +10.3 +5.5 72 +6 +6 1002.5 1002.0
17 16.09 З 9
{11}
н/о н/о +9.9 +6.4 79 +6 +6 1002.3 1001.8
18 16.09 З 12
{17}
н/о н/о +9.1 +7.6 90 +4 +4 1002.3 1001.8 +8.3 +11.2
19 16.09 З 13
{15}
н/о н/о +9.9 +4.9 71 +5 +5 1002.2 1001.7
20 16.09 З 11
{14}
н/о н/о +10.3 +4.0 65 +6 +6 1002.0 1001.5
21 16.09 З 9
{13}
н/о н/о +10.4 +5.2 70 +6 +6 1001.9 1001.4
22 16.09 З 10
{12}
н/о н/о +10.3 +4.9 69 +6 +6 1001.8 1001.3
23 16.09 З 8
{11}
н/о н/о +10.2 +4.4 67 +6 +6 1001.8 1001.3
00 17.09 ЮЗ 12
{15}
н/о н/о +9.0 +5.8 80 +4 +4 1001.7 1001.2
01 17.09 ЮЗ 11
{16}
н/о н/о +8.7 +6.2 84 +3 +3 1001.7 1001.2
02 17.09 З 8
{12}
н/о н/о +9.9 +4.5 69 +6 +6 1002.0 1001.5
03 17.09 З 8
{11}
н/о н/о +9.7 +4.5 70 +6 +6 1002.2 1001.7
04 17.09 З 7
{12}
н/о н/о +8.1 +4.9 80 +4 +4 1002.5 1002.0
05 17.09 З 8
{12}
н/о н/о +9.1 +5.5 78 +5 +5 1002.7 1002.2
06 17.09 З 10
{16}
н/о н/о +9.8 +5.2 73 +5 +5 1003.3 1002.8 +7.8 +10.6
07 17.09 ЮЗ 10
{13}
н/о н/о +9.8 +5.2 73 +5 +5 1003.9 1003.4
08 17.09 ЮЗ 11
{14}
н/о н/о +10.3 +5.7 73 +6 +6 1004.5 1004.0
09 17.09 З 11
{13}
н/о н/о +10.6 +6.2 74 +6 +6 1005.0 1004.5
10 17.09 ЮЗ 7
{12}
н/о н/о +10.8 +7.5 80 +7 +7 1005.5 1005.0
11 17.09 СЗ 6
{8}
н/о н/о +11.3 +7.0 75 +8 +8 1006.4 1005.9
12 17.09 СЗ 6
{14}
н/о н/о +11.6 +7.5 76 +9 +9 1007.1 1006.6
13 17.09 СЗ 8
{11}
н/о н/о +11.9 +7.6 75 +9 +9 1008.0 1007.5
14 17.09 СЗ 9
{11}
н/о н/о +12.2 +8.1 76 +9 +9 1008.7 1008.2
15 17.09 СЗ 9
{11}
н/о н/о +11.6 +8.5 81 +8 +8 1009.6 1009.1
16 17.09 СЗ 8
{11}
н/о н/о +11.8 +8.8 82 +8 +8 1010.0 1009.5
17 17.09 С 7
{11}
н/о н/о +11.3 +6.0 70 +8 +8 1010.2 1009.7
18 17.09 СЗ 7
{11}
н/о н/о +9.6 +7.2 85 +6 +6 1011.1 1010.6 +9.6 +12.3
19 17.09 С 4
{7}
н/о н/о +9.5 +7.6 88 +7 +7 1011.7 1011.2
20 17.09 С 9
{12}
н/о н/о +10.6 +7.7 82 +7 +7 1012.2 1011.7
21 17.09 СЗ 9
{15}
н/о н/о +10.3 +7.0 80 +6 +6 1013.5 1013.0
22 17.09 СЗ 10
{14}
н/о н/о +10.1 +6.6 79 +6 +6 1013.7 1013.2
23 17.09 СЗ 11
{14}
н/о н/о +10.1 +7.7 85 +5 +5 1014.4 1013.9
00 18.09 СЗ 12
{16}
н/о н/о +10.6 +5.0 68 +6 +6 1014.8 1014.3
01 18.09 СЗ 10
{14}
н/о н/о +10.6 +5.4 70 +7 +7 1015.2 1014.7
02 18.09 СЗ 12
{15}
н/о н/о +10.3 +7.4 82 +6 +6 1015.5 1015.0
03 18.09 СЗ 12
{15}
н/о н/о +10.5 +7.4 81 +6 +6 1015.8 1015.3
04 18.09 СЗ 12
{16}
н/о н/о +9.8 +6.5 80 +5 +5 1016.1 1015.6
05 18.09 СЗ 11
{15}
н/о н/о +10.3 +6.8 79 +6 +6 1016.4 1015.9
06 18.09 СЗ 10
{16}
н/о н/о +10.4 +6.2 75 +6 +6 1016.5 1016.0 +9.2 +11.0
07 18.09 СЗ 9
{15}
н/о н/о +10.5 +5.5 71 +7 +7 1016.9 1016.4
08 18.09 СЗ 9
{14}
н/о н/о +10.8 +6.4 74 +7 +7 1017.4 1016.9
09 18.09 СЗ 11
{15}
н/о н/о +10.9 +5.9 71 +7 +7 1018.1 1017.6
10 18.09 СЗ 11
{15}
н/о н/о +10.1 +5.7 74 +6 +6 1018.6 1018.1
11 18.09 СЗ 11
{13}
н/о н/о +10.5 +5.1 69 +6 +6 1019.0 1018.5
12 18.09 СЗ 9
{15}
н/о н/о +10.8 +6.4 74 +7 +7 1019.6 1019.1
13 18.09 СЗ 11
{15}
н/о н/о +10.8 +6.0 72 +7 +7 1020.4 1019.9
14 18.09 С 12
{15}
н/о н/о +10.8 +6.4 74 +6 +6 1020.8 1020.3
15 18.09 СЗ 11
{15}
н/о н/о +10.9 +5.0 67 +7 +7 1021.6 1021.1
16 18.09 СЗ 11
{14}
н/о н/о +10.7 +4.2 64 +7 +7 1021.8 1021.3
17 18.09 СЗ 10
{13}
н/о н/о +10.7 +4.4 65 +7 +7 1022.6 1022.1
18 18.09 СЗ 10
{15}
н/о н/о +10.4 +4.1 65 +6 +6 1023.1 1022.6 +9.4 +11.5
19 18.09 СЗ 10
{13}
н/о н/о +10.3 +3.8 64 +6 +6 1023.3 1022.8
20 18.09 СЗ 11
{15}
н/о н/о +10.1 +4.1 66 +6 +6 1023.5 1023.0
21 18.09 СЗ 12
{15}
н/о н/о +10.0 +4.8 70 +5 +5 1023.8 1023.3
22 18.09 СЗ 10
{16}
н/о н/о +9.2 +5.2 76 +5 +5 1023.8 1023.3
23 18.09 СЗ 10
{16}
н/о н/о +9.2 +6.3 82 +4 +4 1023.9 1023.4
00 19.09 СЗ 12
{16}
н/о н/о +8.8 +5.6 80 +3 +3 1025.1 1024.6
01 19.09 С 5
{13}
н/о н/о +8.3 +4.3 76 +5 +5 1024.5 1024.0
02 19.09 СЗ 7
{12}
н/о н/о +8.6 +4.2 74 +4 +4 1024.8 1024.3
03 19.09 З 8
{13}
н/о н/о +9.5 +5.1 74 +5 +5 1024.9 1024.4
04 19.09 СЗ 7
{10}
н/о н/о +9.7 +4.5 70 +6 +6 1024.9 1024.4
05 19.09 З 9
{11}
н/о н/о +9.3 +4.5 72 +5 +5 1024.9 1024.4
06 19.09 З 10
{14}
н/о н/о +8.0 +4.4 78 +3 +3 1025.4 1024.9 +8.0 +10.5
07 19.09 СЗ 7
{13}
н/о н/о +9.3 +3.5 67 +6 +6 1025.1 1024.6
08 19.09 СЗ 8
{11}
н/о н/о +9.0 +4.0 71 +5 +5 1025.2 1024.7
09 19.09 З 7
{10}
н/о н/о +9.8 +2.9 62 +6 +6 1025.4 1024.9
10 19.09 З 7
{9}
н/о н/о +10.0 +3.3 63 +7 +7 1025.1 1024.6
11 19.09 З 7
{9}
н/о н/о +10.1 +3.4 63 +7 +7 1025.0 1024.5
12 19.09 З 6
{13}
н/о н/о +10.1 +3.6 64 +7 +7 1024.8 1024.3
13 19.09 З 5
{7}
н/о н/о +10.2 +3.7 64 +7 +7 1024.5 1024.0
14 19.09 З 5
{7}
н/о н/о +10.4 +3.9 64 +8 +8 1023.9 1023.4
15 19.09 Ю 3
{13}
н/о н/о +7.2 +3.3 76 +4 +4 1023.6 1023.1
16 19.09 ЮЗ 8
{11}
н/о н/о +8.5 +5.6 82 +4 +4 1022.9 1022.4
17 19.09 Ю 7
{9}
н/о н/о +7.9 +5.7 86 +3 +3 1022.1 1021.6
18 19.09 Ю 6
{13}
н/о н/о +7.9 +6.4 90 +4 +4 1021.4 1020.9 +7.2 +10.5
19 19.09 Ю 5
{8}
н/о н/о +8.1 +6.2 88 +4 +4 1020.8 1020.3
20 19.09 Ю 6
{8}
н/о н/о +8.1 +6.2 88 +4 +4 1020.1 1019.6
21 19.09 Ю 7
{10}
н/о н/о +7.7 +5.8 88 +3 +3 1018.8 1018.3
22 19.09 ЮВ 8
{10}
н/о н/о +7.4 +5.9 90 +2 +2 1017.7 1017.2

 

Местоположение метеостанции Вейхолмен (Норвегия): широта 63.52 долгота 7.95 высота над уровнем моря 5 м.

В архиве по умолчанию представлена погода в Вейхолмене за последнюю неделю. Архивные данные за месяц целиком и за предыдущие месяцы, начиная с января 2011 года, Вы можете получить, выбрав интересующий диапазон дат из раскрывающегося списка и нажав кнопку "Ввод!".


*Определитесь, кто Вы:
робот инопланетянин человек

Внимание! Время в таблицах - всемирное. Для получения местного времени необходимо прибавить поправку, которая равна 1 ч.

Смотрите также архив погоды в соседних городах и на ближайших метеорологических станциях:

Погода в Суле (Норвегия) (45 км)
Погода в Кристиансунн аэропорту (Норвегия) (46 км)
Погода на Хитра (Норвегия) (58 км)
Погода в Тагдалене (Норвегия) (77 км)
Погода в Орленде (Норвегия) (84 км)
Погода в Молдэ аэропорту (Норвегия) (92 км)
Погода в Орканжере (Норвегия) (97 км)
Погода в Тингволл-Ханеме (Норвегия) (98 км)
Погода на Маяке Halten (Норвегия) (101 км)
Погода в Она (Норвегия) (102 км)

Пояснения к столбцам:

Ветер - указаны скорость ветра в м/с - средняя за 10 мин, порывы в срок и между сроками (в фигурных скобках) и направление, откуда дует ветер: С - северный, СВ - северо-восточный, В - восточный, ЮВ - юго-восточный, Ю - южный, ЮЗ - юго-западный, З - западный, СЗ - северо-западный.
Видимость - горизонтальная дальность видимости в метрах или километрах. При видимости от 1 до 10 км при отсутствии осадков обычно наблюдается дымка, при ухудшении видимости до 1 км и менее - туман. В сухую погоду видимость может ухудшаться дымом, пылью или мглою.
Явления - указаны атмосферные явления, наблюдавшиеся в срок или в последний час перед сроком; фигурными скобками обозначены явления, наблюдавшиеся между сроками (за 1-3 часа до срока); квадратными скобками обозначены град или гололедные отложения с указанием их диаметра в мм.
Облачность - указаны через наклонную черту общая и нижняя облачность в баллах и высота нижней границы облаков в метрах; квадратными скобками обозначены формы облаков: Ci - перистые, Cs - перисто-слоистые, Cc - перисто-кучевые, Ac - высококучевые, As - высокослоистые, Sc - слоисто-кучевые, Ns - слоисто-дождевые, Cu - кучевые, Cb - кучево-дождевые. Подробнее классификацию облаков см. в Атласе облаков (PDF).
T - Температура воздуха - температура, измеренная на высоте 2 м над землей.
Td - Температура точки росы - температура, при понижении до которой содержащийся в воздухе водяной пар достигнет насыщения.
f - Относительная влажность воздуха - влажноcть воздуха, измеренная на высоте 2 м над землей.
Te - Эффективная температура - температура, которую ощущает одетый по сезону человек в тени. Характеристика душности погоды. При расчете учитывается влияние влажности воздуха и скорости ветра на теплоощущения человека.
Tes - Эффективная температура на солнце - температура, которую ощущает человек, с поправкой на солнечный нагрев. Характеристика знойности погоды. Зависит от высоты солнца над горизонтом, облачности и скорости ветра. Ночью, в пасмурную погоду, а также при ветре 12 м/с и более поправка равна нулю.
P - Атмосферное давление - приведенное к уровню моря атмосферное давление.
Po - Атмосферное давление - измеренное на уровне метеостанции атмосферное давление.
Tmin - Минимальная температура - минимум температуры воздуха на высоте 2 м над землей.
Tmax - Максимальная температура - максимум температуры воздуха на высоте 2 м над землей.
R - Количество осадков - Количество выпавших осадков за период времени, мм. При наведении курсора мыши на число - период времени, за который выпало указанное количество осадков.
R24 - Количество осадков - Количество выпавших осадков за 24 часа, мм.
S - Снежный покров - Высота снежного покрова, см. При наведении курсора мыши на число - состояние снежного покрова и степень покрытия местности в баллах.